Вернуться в каталог

COSMOS 2109

GLONASS

АктивенНавигацияMEO
NORAD 21006·PAYLOAD·🇷🇺 Russia

Запущен Dec 8, 1990 с Baikonur Cosmodrome

Loading…

Ближайшие Пролёты (ближайшие 24 часа)

TLE

СвежийSource: Space-Track

Эпоха: Sep 13, 2026, 18:05 UTC

1 21006U 90110A   26256.75351463 -.00000012  00000-0  00000-0 0  9999
2 21006  64.9816  68.0988 0078844 201.0846 159.4631  2.13101847278379

Отслеживайте COSMOS 2109 в реальном времени с AllMySat

Download on the App Store